Tucson Davis Monthan, AZ

9:46 AM MST on June 24, 2018 (GMT -0700)
Davis-Monthan Air Force Base

Weather History for KDMA - October, 2017

Change the Weather History Date:

Tuesday, October 31, 2017

  Actual Average Record
Temperature  
Mean Temperature 67 °F -  
Max Temperature 80 °F 76 °F 89 °F (1990)
Min Temperature 54 °F 49 °F 35 °F (1981)
Cooling Degree Days 2    
Growing Degree Days 17 (Base 50)    
Moisture  
Dew Point 39 °F    
Average Humidity 38    
Maximum Humidity 65    
Minimum Humidity 20    
Precipitation  
Precipitation 0.00 in - - ()
Sea Level Pressure  
Sea Level Pressure 29.83 in    
Wind  
Wind Speed 6 mph (SSE)    
Max Wind Speed 12 mph    
Max Gust Speed -    
Visibility 10 miles    
Events      
Averages and records for this station are not official NWS values.
T = Trace of Precipitation, MM = Missing Value Source: NWS Daily Summary

Daily Weather History Graph

Daily Weather History Graph

Search for Another Location

Airport or City:

Astronomy

Oct. 31, 2017 Rise Set
Actual Time 6:39 AM MST 5:33 PM MST
Civil Twilight 6:14 AM MST 5:59 PM MST
Nautical Twilight 5:45 AM MST 6:28 PM MST
Astronomical Twilight 5:16 AM MST 6:56 PM MST
Moon 3:42 PM MST (10/31) 2:47 AM MST (10/31)
Length of Visible Light 11h 44m
Length of Day
10h 54m
Waxing Gibbous, 85% of the Moon is Illuminated
Oct 31
Waxing Gibbous
Nov 3
Full
Nov 10
Last Quarter
Nov 18
New
Nov 26
First Quarter

Hourly Weather History & Observations

Time (MST) Temp. Dew Point Humidity Pressure Visibility Wind Dir Wind Speed Gust Speed Precip Events Conditions
12:58 AM 64.4 °F 43.7 °F 47% 29.79 in 10.0 mi SSW 8.1 mph - N/A   Scattered Clouds
1:58 AM 59.7 °F 43.5 °F 55% 29.81 in 10.0 mi South 6.9 mph - N/A   Clear
2:58 AM 58.6 °F 42.4 °F 55% 29.81 in 10.0 mi South 4.6 mph - N/A   Clear
3:58 AM 58.3 °F 42.6 °F 56% 29.81 in 10.0 mi SE 11.5 mph - N/A   Clear
4:58 AM 57.4 °F 43.2 °F 59% 29.83 in 10.0 mi SSW 4.6 mph - N/A   Clear
5:58 AM 56.1 °F 43.3 °F 62% 29.84 in 10.0 mi South 9.2 mph - N/A   Partly Cloudy
6:58 AM 54.9 °F 43.3 °F 65% 29.86 in 10.0 mi South 8.1 mph - N/A   Clear
7:58 AM 62.1 °F 43.2 °F 50% 29.87 in 10.0 mi SSE 8.1 mph - N/A   Clear
8:58 AM 68.4 °F 41.7 °F 38% 29.89 in 10.0 mi SSE 5.8 mph - N/A   Clear
9:58 AM 72.3 °F 41.5 °F 33% 29.88 in 10.0 mi Calm Calm - N/A   Clear
10:58 AM 74.8 °F 41.4 °F 30% 29.87 in 10.0 mi SW 3.5 mph - N/A   Clear
11:58 AM 78.1 °F 43.2 °F 29% 29.84 in 10.0 mi SSW 9.2 mph - N/A   Clear
12:58 PM 80.1 °F 36.5 °F 21% 29.80 in 10.0 mi SW 10.4 mph - N/A   Clear
1:58 PM 79.3 °F 34.7 °F 20% 29.80 in 10.0 mi Calm Calm - N/A   Partly Cloudy
2:58 PM 77.9 °F 37.0 °F 23% 29.81 in 10.0 mi North 5.8 mph - N/A   Mostly Cloudy
3:58 PM 77.5 °F 36.9 °F 23% 29.80 in 10.0 mi NNE 3.5 mph - N/A   Scattered Clouds
4:58 PM 76.3 °F 36.9 °F 24% 29.80 in 10.0 mi NNE 5.8 mph - N/A   Partly Cloudy
5:58 PM 73.4 °F 35.4 °F 25% 29.82 in 10.0 mi NNE 3.5 mph - N/A   Mostly Cloudy
6:58 PM 69.1 °F 32.7 °F 26% 29.83 in 10.0 mi Calm Calm - N/A   Clear
7:58 PM 66.2 °F 34.7 °F 31% 29.84 in 10.0 mi SSE 4.6 mph - N/A   Overcast
8:58 PM 66.0 °F 34.5 °F 31% 29.84 in 10.0 mi South 4.6 mph - N/A   Mostly Cloudy
9:58 PM 64.6 °F 34.9 °F 33% 29.85 in 10.0 mi South 6.9 mph - N/A   Overcast
10:58 PM 64.8 °F 33.4 °F 31% 29.86 in 10.0 mi SSE 6.9 mph - N/A   Mostly Cloudy
11:58 PM 65.3 °F 36.1 °F 34% 29.85 in 10.0 mi SE 8.1 mph - N/A   Overcast